Toledo, OH

11:32 AM EDT on April 23, 2018 (GMT -0400)
Toledo Express

Weather History for KTOL - March, 2013

Change the Weather History Date:

Saturday, March 2, 2013

  Actual Average Record
Temperature  
Mean Temperature 25 °F 32 °F  
Max Temperature 27 °F 41 °F 64 °F (1882)
Min Temperature 23 °F 24 °F -5 °F (1978)
Degree Days  
Heating Degree Days 40 33  
Month to date heating degree days 76 66  
Since 1 July heating degree days 4532 4642  
Cooling Degree Days 0 0  
Month to date cooling degree days 0 0  
Year to date cooling degree days 0 0  
Moisture  
Dew Point 17 °F    
Average Humidity 72    
Maximum Humidity 81    
Minimum Humidity 63    
Precipitation  
Precipitation T in 0.07 in 0.83 in (2012)
Month to date precipitation T 0.15  
Year to date precipitation 6.44 4.27  
Snow  
Snow T in 0.20 in - ()
Month to date snowfall T 0.5  
Since 1 July snowfall 22.5 31.0  
Snow Depth T in    
Sea Level Pressure  
Sea Level Pressure 30.08 in    
Wind  
Wind Speed 9 mph (NNW)    
Max Wind Speed 14 mph    
Max Gust Speed 18 mph    
Visibility 9 miles    
Events Snow    
T = Trace of Precipitation, MM = Missing Value Source: NWS Daily Summary

Daily Weather History Graph

Daily Weather History Graph

Search for Another Location

Airport or City:

Astronomy

Mar. 02, 2013 Rise Set
Actual Time 7:07 AM EST 6:27 PM EST
Civil Twilight 6:40 AM EST 6:55 PM EST
Nautical Twilight 6:08 AM EST 7:27 PM EST
Astronomical Twilight 5:35 AM EST 7:59 PM EST
Moon No Moon Rise 9:30 AM EST (3/2)
Length of Visible Light 12h 14m
Length of Day
11h 19m
Waning Gibbous, 74% of the Moon is Illuminated
Mar 2
Waning Gibbous
Mar 4
Last Quarter
Mar 11
New
Mar 19
First Quarter
Mar 27
Full

Hourly Weather History & Observations

Time (EST) Temp. Windchill Dew Point Humidity Pressure Visibility Wind Dir Wind Speed Gust Speed Precip Events Conditions
12:52 AM 25.0 °F 15.5 °F 18.0 °F 75% 30.10 in 10.0 mi NNE 9.2 mph - N/A   Overcast
1:52 AM 25.0 °F 14.8 °F 17.1 °F 72% 30.10 in 10.0 mi North 10.4 mph - N/A   Overcast
2:52 AM 25.0 °F 20.7 °F 17.1 °F 72% 30.09 in 10.0 mi North 3.5 mph - N/A   Overcast
3:52 AM 25.0 °F 18.1 °F 17.1 °F 72% 30.08 in 10.0 mi NW 5.8 mph - N/A   Overcast
4:52 AM 25.0 °F 15.5 °F 17.1 °F 72% 30.08 in 10.0 mi North 9.2 mph - N/A   Overcast
5:52 AM 25.0 °F 18.1 °F 18.0 °F 75% 30.08 in 9.0 mi North 5.8 mph - 0.00 in Snow Light Snow
6:52 AM 25.0 °F 15.5 °F 17.1 °F 72% 30.08 in 9.0 mi North 9.2 mph - 0.00 in Snow Light Snow
7:52 AM 25.0 °F 16.3 °F 18.0 °F 75% 30.09 in 7.0 mi North 8.1 mph - 0.00 in Snow Light Snow
8:52 AM 25.0 °F 15.5 °F 19.0 °F 78% 30.10 in 4.0 mi NNW 9.2 mph - 0.00 in Snow Light Snow
9:52 AM 25.0 °F 14.8 °F 19.0 °F 78% 30.09 in 5.0 mi NNW 10.4 mph - 0.00 in Snow Light Snow
10:52 AM 25.0 °F 13.6 °F 18.0 °F 75% 30.09 in 6.0 mi NNW 12.7 mph - 0.00 in Snow Light Snow
11:52 AM 26.1 °F 16.2 °F 19.0 °F 75% 30.09 in 10.0 mi NNW 10.4 mph - 0.00 in Snow Light Snow
12:03 PM 26.6 °F 18.2 °F 19.4 °F 74% 30.06 in 9.0 mi NNW 8.1 mph - N/A Snow Light Snow
12:52 PM 26.1 °F 16.2 °F 18.0 °F 71% 30.08 in 9.0 mi NNW 10.4 mph - 0.00 in Snow Light Snow
1:52 PM 27.0 °F 16.1 °F 17.1 °F 66% 30.07 in 10.0 mi North 12.7 mph - 0.00 in   Overcast
2:52 PM 27.0 °F 18.0 °F 17.1 °F 66% 30.07 in 10.0 mi North 9.2 mph - N/A   Overcast
3:52 PM 26.1 °F 17.6 °F 16.0 °F 66% 30.07 in 10.0 mi North 8.1 mph - N/A   Overcast
4:52 PM 26.1 °F 17.6 °F 17.1 °F 69% 30.07 in 10.0 mi NNW 8.1 mph - N/A   Overcast
5:52 PM 26.6 °F 18.2 °F 15.8 °F 64% 30.06 in 10.0 mi NNW 8.1 mph - N/A   Overcast
6:52 PM 25.0 °F 16.3 °F 16.0 °F 69% 30.10 in 10.0 mi NNW 8.1 mph - N/A   Overcast
7:52 PM 25.0 °F 14.2 °F 16.0 °F 69% 30.09 in 10.0 mi NNW 11.5 mph - N/A   Overcast
8:52 PM 24.1 °F 16.0 °F 16.0 °F 71% 30.09 in 10.0 mi WNW 6.9 mph - N/A   Overcast
9:52 PM 24.1 °F 15.2 °F 16.0 °F 71% 30.10 in 10.0 mi NNW 8.1 mph - N/A   Overcast
10:52 PM 24.1 °F 17.0 °F 15.1 °F 69% 30.09 in 10.0 mi North 5.8 mph - N/A   Overcast
11:52 PM 23.0 °F 15.8 °F 14.0 °F 68% 30.06 in 10.0 mi NNW 5.8 mph - N/A   Overcast